Time,TemperatureF,DewpointF,PressureIn,WindDirection,WindDirectionDegrees,WindSpeedMPH,WindSpeedGustMPH,Humidity,HourlyPrecipIn,Conditions,Clouds,dailyrainin,SoftwareType,DateUTC
2013-09-23 00:00:00,78.2,74.7,29.84,East,80,0.0,1.0,89,0.00,,,0.00,WeatherCatV1.21B27,2013-09-23 04:00:00,
2013-09-23 00:01:00,78.2,74.7,29.84,East,80,0.0,1.0,89,0.00,,,0.00,WeatherCatV1.21B27,2013-09-23 04:01:00,
2013-09-23 00:02:00,78.2,74.7,29.84,East,80,0.0,0.0,89,0.00,,,0.00,WeatherCatV1.21B27,2013-09-23 04:02:00,
2013-09-23 00:07:00,78.1,74.6,29.84,East,80,0.0,1.0,89,0.00,,,0.00,WeatherCatV1.21B27,2013-09-23 04:07:00,
2013-09-23 00:12:00,78.0,74.5,29.84,East,80,0.0,0.0,89,0.00,,,0.00,WeatherCatV1.21B27,2013-09-23 04:12:00,
2013-09-23 00:17:00,78.0,74.5,29.84,East,80,0.0,0.0,89,0.00,,,0.00,WeatherCatV1.21B27,2013-09-23 04:17:00,
2013-09-23 00:22:00,78.0,74.5,29.84,East,80,0.0,0.0,89,0.00,,,0.00,WeatherCatV1.21B27,2013-09-23 04:22:00,
2013-09-23 00:27:00,77.9,74.4,29.84,East,80,0.0,1.0,89,0.00,,,0.00,WeatherCatV1.21B27,2013-09-23 04:27:00,
2013-09-23 00:32:00,78.0,74.5,29.84,East,80,0.0,0.0,89,0.00,,,0.00,WeatherCatV1.21B27,2013-09-23 04:32:00,
2013-09-23 00:38:00,77.9,74.4,29.84,East,80,0.0,0.0,89,0.00,,,0.00,WeatherCatV1.21B27,2013-09-23 04:38:00,
2013-09-23 00:43:00,77.9,74.4,29.84,East,80,0.0,1.0,89,0.00,,,0.00,WeatherCatV1.21B27,2013-09-23 04:43:00,
2013-09-23 00:48:00,77.9,74.4,29.84,East,80,0.0,1.0,89,0.00,,,0.00,WeatherCatV1.21B27,2013-09-23 04:48:00,
2013-09-23 00:53:00,77.9,74.4,29.84,East,80,0.0,0.0,89,0.00,,,0.00,WeatherCatV1.21B27,2013-09-23 04:53:00,
2013-09-23 00:58:00,77.8,74.3,29.84,East,80,0.0,0.0,89,0.00,,,0.00,WeatherCatV1.21B27,2013-09-23 04:58:00,
2013-09-23 01:03:00,77.7,74.2,29.84,East,80,0.0,0.0,89,0.00,,,0.00,WeatherCatV1.21B27,2013-09-23 05:03:00,
2013-09-23 01:08:00,77.6,74.1,29.84,East,80,0.0,1.0,89,0.00,,,0.00,WeatherCatV1.21B27,2013-09-23 05:08:00,
2013-09-23 01:13:00,77.5,74.0,29.83,East,80,0.0,0.0,89,0.00,,,0.00,WeatherCatV1.21B27,2013-09-23 05:13:00,
2013-09-23 01:18:00,77.5,74.0,29.83,East,80,0.0,0.0,89,0.00,,,0.00,WeatherCatV1.21B27,2013-09-23 05:18:00,
2013-09-23 01:23:00,77.5,74.0,29.83,East,80,0.0,0.0,89,0.00,,,0.00,WeatherCatV1.21B27,2013-09-23 05:23:00,
2013-09-23 01:28:00,77.4,73.9,29.83,East,80,0.0,0.0,89,0.00,,,0.00,WeatherCatV1.21B27,2013-09-23 05:28:00,
2013-09-23 01:33:00,77.4,73.9,29.83,East,80,0.0,1.0,89,0.00,,,0.00,WeatherCatV1.21B27,2013-09-23 05:33:00,
2013-09-23 01:38:00,77.4,73.9,29.83,East,80,0.0,0.0,89,0.00,,,0.00,WeatherCatV1.21B27,2013-09-23 05:38:00,
2013-09-23 01:43:00,77.3,73.8,29.83,East,80,0.0,0.0,89,0.00,,,0.00,WeatherCatV1.21B27,2013-09-23 05:43:00,
2013-09-23 01:48:00,77.3,73.8,29.83,East,80,0.0,0.0,89,0.00,,,0.00,WeatherCatV1.21B27,2013-09-23 05:48:00,
2013-09-23 01:53:00,77.3,73.8,29.83,East,80,0.0,0.0,89,0.00,,,0.00,WeatherCatV1.21B27,2013-09-23 05:53:00,
2013-09-23 01:58:00,77.2,73.7,29.83,East,80,0.0,0.0,89,0.00,,,0.00,WeatherCatV1.21B27,2013-09-23 05:58:00,
2013-09-23 02:03:00,77.1,73.6,29.83,East,80,0.0,0.0,89,0.00,,,0.00,WeatherCatV1.21B27,2013-09-23 06:03:00,
2013-09-23 02:08:00,77.1,73.9,29.83,East,80,0.0,0.0,90,0.00,,,0.00,WeatherCatV1.21B27,2013-09-23 06:08:00,
2013-09-23 02:13:00,77.1,73.9,29.83,East,80,0.0,0.0,90,0.00,,,0.00,WeatherCatV1.21B27,2013-09-23 06:13:00,
2013-09-23 02:18:00,77.0,73.8,29.83,East,80,1.0,1.0,90,0.00,,,0.00,WeatherCatV1.21B27,2013-09-23 06:18:00,
2013-09-23 02:23:00,77.1,73.9,29.83,East,80,1.0,2.0,90,0.00,,,0.00,WeatherCatV1.21B27,2013-09-23 06:23:00,
2013-09-23 02:28:00,77.1,73.9,29.83,East,80,0.0,0.0,90,0.00,,,0.00,WeatherCatV1.21B27,2013-09-23 06:28:00,
2013-09-23 02:33:00,77.1,73.9,29.82,East,80,0.0,0.0,90,0.00,,,0.00,WeatherCatV1.21B27,2013-09-23 06:33:00,
2013-09-23 02:38:00,77.1,73.9,29.83,East,80,0.0,0.0,90,0.00,,,0.00,WeatherCatV1.21B27,2013-09-23 06:38:00,
2013-09-23 02:43:00,77.1,73.9,29.83,East,80,0.0,0.0,90,0.00,,,0.00,WeatherCatV1.21B27,2013-09-23 06:43:00,
2013-09-23 02:48:00,77.1,73.9,29.83,East,80,0.0,1.0,90,0.00,,,0.00,WeatherCatV1.21B27,2013-09-23 06:48:00,
2013-09-23 02:53:00,77.1,73.9,29.83,East,80,0.0,0.0,90,0.00,,,0.00,WeatherCatV1.21B27,2013-09-23 06:53:00,
2013-09-23 02:58:00,77.1,73.9,29.83,East,80,0.0,0.0,90,0.00,,,0.00,WeatherCatV1.21B27,2013-09-23 06:58:00,
2013-09-23 03:03:00,77.1,73.9,29.83,East,80,0.0,0.0,90,0.00,,,0.00,WeatherCatV1.21B27,2013-09-23 07:03:00,
2013-09-23 03:08:00,77.1,73.9,29.83,East,80,0.0,1.0,90,0.00,,,0.00,WeatherCatV1.21B27,2013-09-23 07:08:00,
2013-09-23 03:13:00,77.1,73.9,29.82,East,80,0.0,0.0,90,0.00,,,0.00,WeatherCatV1.21B27,2013-09-23 07:13:00,
2013-09-23 03:18:00,77.1,73.9,29.82,East,80,0.0,0.0,90,0.00,,,0.00,WeatherCatV1.21B27,2013-09-23 07:18:00,
2013-09-23 03:23:00,77.1,73.9,29.82,East,80,0.0,0.0,90,0.00,,,0.00,WeatherCatV1.21B27,2013-09-23 07:23:00,
2013-09-23 03:28:00,77.1,73.9,29.82,East,80,0.0,0.0,90,0.00,,,0.00,WeatherCatV1.21B27,2013-09-23 07:28:00,
2013-09-23 03:33:00,77.0,74.2,29.82,East,80,0.0,0.0,91,0.00,,,0.00,WeatherCatV1.21B27,2013-09-23 07:33:00,
2013-09-23 03:38:00,77.0,74.2,29.82,East,80,0.0,0.0,91,0.00,,,0.00,WeatherCatV1.21B27,2013-09-23 07:38:00,
2013-09-23 03:43:00,77.0,74.2,29.83,East,80,0.0,1.0,91,0.00,,,0.00,WeatherCatV1.21B27,2013-09-23 07:43:00,
2013-09-23 03:48:00,77.0,74.2,29.82,East,80,0.0,1.0,91,0.00,,,0.00,WeatherCatV1.21B27,2013-09-23 07:48:00,
2013-09-23 03:53:00,77.0,74.2,29.82,East,80,0.0,0.0,91,0.00,,,0.00,WeatherCatV1.21B27,2013-09-23 07:53:00,
2013-09-23 03:58:00,77.0,74.2,29.83,East,80,0.0,0.0,91,0.00,,,0.00,WeatherCatV1.21B27,2013-09-23 07:58:00,
2013-09-23 04:03:00,77.0,74.2,29.83,East,80,0.0,0.0,91,0.00,,,0.00,WeatherCatV1.21B27,2013-09-23 08:03:00,
2013-09-23 04:08:00,77.0,74.2,29.83,East,80,0.0,0.0,91,0.00,,,0.00,WeatherCatV1.21B27,2013-09-23 08:08:00,
2013-09-23 04:13:00,77.0,74.2,29.83,East,80,0.0,2.0,91,0.00,,,0.00,WeatherCatV1.21B27,2013-09-23 08:13:00,
2013-09-23 04:18:00,77.0,74.2,29.83,East,80,0.0,0.0,91,0.00,,,0.00,WeatherCatV1.21B27,2013-09-23 08:18:00,
2013-09-23 04:23:00,77.0,74.2,29.83,East,97,1.0,2.0,91,0.00,,,0.00,WeatherCatV1.21B27,2013-09-23 08:23:00,
2013-09-23 04:28:00,77.0,74.2,29.83,East,97,0.0,0.0,91,0.00,,,0.00,WeatherCatV1.21B27,2013-09-23 08:28:00,
2013-09-23 04:33:00,77.1,74.3,29.83,East,91,0.0,0.0,91,0.00,,,0.00,WeatherCatV1.21B27,2013-09-23 08:33:00,
2013-09-23 04:38:00,77.1,74.3,29.83,East,92,0.0,1.0,91,0.00,,,0.00,WeatherCatV1.21B27,2013-09-23 08:38:00,
2013-09-23 04:43:00,77.1,74.3,29.83,East,96,0.0,2.0,91,0.00,,,0.00,WeatherCatV1.21B27,2013-09-23 08:43:00,
2013-09-23 04:48:00,77.1,74.3,29.83,East,92,0.0,2.0,91,0.00,,,0.00,WeatherCatV1.21B27,2013-09-23 08:48:00,
2013-09-23 04:53:00,77.1,74.3,29.83,East,92,0.0,0.0,91,0.00,,,0.00,WeatherCatV1.21B27,2013-09-23 08:53:00,
2013-09-23 04:58:00,77.1,74.3,29.83,East,92,0.0,0.0,91,0.00,,,0.00,WeatherCatV1.21B27,2013-09-23 08:58:00,
2013-09-23 05:03:00,77.1,74.3,29.84,East,92,0.0,0.0,91,0.00,,,0.00,WeatherCatV1.21B27,2013-09-23 09:03:00,
2013-09-23 05:08:00,77.1,74.3,29.84,East,92,0.0,1.0,91,0.00,,,0.00,WeatherCatV1.21B27,2013-09-23 09:08:00,
2013-09-23 05:13:00,77.2,74.4,29.84,East,92,0.0,1.0,91,0.00,,,0.00,WeatherCatV1.21B27,2013-09-23 09:13:00,
2013-09-23 05:18:00,77.2,74.7,29.84,East,90,1.0,2.0,92,0.00,,,0.00,WeatherCatV1.21B27,2013-09-23 09:18:00,
2013-09-23 05:23:00,77.2,74.7,29.84,East,90,0.0,2.0,92,0.00,,,0.00,WeatherCatV1.21B27,2013-09-23 09:23:00,
2013-09-23 05:28:00,77.3,74.8,29.83,East,90,0.0,0.0,92,0.00,,,0.00,WeatherCatV1.21B27,2013-09-23 09:28:00,
2013-09-23 05:33:00,77.3,74.8,29.83,East,88,4.0,4.0,92,0.00,,,0.00,WeatherCatV1.21B27,2013-09-23 09:33:00,
2013-09-23 05:38:00,77.4,74.9,29.84,East,88,0.0,2.0,92,0.00,,,0.00,WeatherCatV1.21B27,2013-09-23 09:38:00,
2013-09-23 05:43:00,77.4,74.9,29.84,East,85,0.0,4.0,92,0.00,,,0.00,WeatherCatV1.21B27,2013-09-23 09:43:00,
2013-09-23 05:48:00,77.5,75.0,29.84,East,98,1.0,5.0,92,0.00,,,0.00,WeatherCatV1.21B27,2013-09-23 09:48:00,
2013-09-23 05:53:00,77.5,75.0,29.84,ESE,102,2.0,3.0,92,0.00,,,0.00,WeatherCatV1.21B27,2013-09-23 09:53:00,
2013-09-23 05:58:00,77.6,75.1,29.84,East,101,4.0,5.0,92,0.00,,,0.00,WeatherCatV1.21B27,2013-09-23 09:58:00,
2013-09-23 06:03:00,77.6,75.1,29.84,East,91,2.0,3.0,92,0.00,,,0.00,WeatherCatV1.21B27,2013-09-23 10:03:00,
2013-09-23 06:08:00,77.6,75.1,29.84,East,92,0.0,2.0,92,0.00,,,0.00,WeatherCatV1.21B27,2013-09-23 10:08:00,
2013-09-23 06:13:00,77.7,75.2,29.84,East,88,0.0,2.0,92,0.00,,,0.00,WeatherCatV1.21B27,2013-09-23 10:13:00,
2013-09-23 06:18:00,77.7,75.2,29.84,East,98,1.0,3.0,92,0.00,,,0.00,WeatherCatV1.21B27,2013-09-23 10:18:00,
2013-09-23 06:23:00,77.7,75.2,29.84,East,88,0.0,4.0,92,0.00,,,0.00,WeatherCatV1.21B27,2013-09-23 10:23:00,
2013-09-23 06:28:00,77.7,75.2,29.84,ESE,107,0.0,5.0,92,0.00,,,0.00,WeatherCatV1.21B27,2013-09-23 10:28:00,
2013-09-23 06:33:00,77.7,75.2,29.84,East,89,0.0,1.0,92,0.00,,,0.01,WeatherCatV1.21B27,2013-09-23 10:33:00,
2013-09-23 06:38:00,77.7,75.2,29.84,East,84,0.0,1.0,92,0.00,,,0.01,WeatherCatV1.21B27,2013-09-23 10:38:00,
2013-09-23 06:43:00,77.7,75.2,29.84,ESE,105,0.0,1.0,92,0.00,,,0.01,WeatherCatV1.21B27,2013-09-23 10:43:00,
2013-09-23 06:48:00,77.7,75.2,29.84,ESE,105,0.0,1.0,92,0.00,,,0.01,WeatherCatV1.21B27,2013-09-23 10:48:00,
2013-09-23 06:53:00,77.6,75.1,29.85,ESE,105,1.0,2.0,92,0.00,,,0.01,WeatherCatV1.21B27,2013-09-23 10:53:00,
2013-09-23 06:58:00,77.6,75.1,29.85,East,96,0.0,4.0,92,0.00,,,0.01,WeatherCatV1.21B27,2013-09-23 10:58:00,
2013-09-23 07:03:00,77.5,75.3,29.85,ESE,102,1.0,3.0,93,0.00,,,0.01,WeatherCatV1.21B27,2013-09-23 11:03:00,
2013-09-23 07:08:00,77.5,75.3,29.85,ENE,64,2.0,5.0,93,0.00,,,0.01,WeatherCatV1.21B27,2013-09-23 11:08:00,
2013-09-23 07:13:00,77.5,75.3,29.85,ENE,71,1.0,4.0,93,0.00,,,0.01,WeatherCatV1.21B27,2013-09-23 11:13:00,
2013-09-23 07:18:00,77.4,75.2,29.85,ESE,102,1.0,4.0,93,0.00,,,0.01,WeatherCatV1.21B27,2013-09-23 11:18:00,
2013-09-23 07:23:00,77.4,75.2,29.86,East,86,0.0,2.0,93,0.00,,,0.01,WeatherCatV1.21B27,2013-09-23 11:23:00,
2013-09-23 07:28:00,77.4,75.2,29.85,East,84,1.0,2.0,93,0.00,,,0.01,WeatherCatV1.21B27,2013-09-23 11:28:00,
2013-09-23 07:33:00,77.3,75.1,29.85,East,84,1.0,5.0,93,0.00,,,0.01,WeatherCatV1.21B27,2013-09-23 11:33:00,
2013-09-23 07:38:00,77.3,75.1,29.85,East,84,0.0,2.0,93,0.00,,,0.01,WeatherCatV1.21B27,2013-09-23 11:38:00,
2013-09-23 07:43:00,77.3,75.1,29.85,ESE,103,0.0,0.0,93,0.00,,,0.01,WeatherCatV1.21B27,2013-09-23 11:43:00,
2013-09-23 07:48:00,77.3,75.1,29.85,SE,124,2.0,5.0,93,0.00,,,0.01,WeatherCatV1.21B27,2013-09-23 11:48:00,
2013-09-23 07:53:00,77.4,75.2,29.85,East,83,4.0,4.0,93,0.00,,,0.01,WeatherCatV1.21B27,2013-09-23 11:53:00,
2013-09-23 07:58:00,77.5,75.3,29.86,East,100,0.0,2.0,93,0.00,,,0.01,WeatherCatV1.21B27,2013-09-23 11:58:00,
2013-09-23 08:03:00,77.7,75.5,29.86,ESE,110,0.0,1.0,93,0.00,,,0.01,WeatherCatV1.21B27,2013-09-23 12:03:00,
2013-09-23 08:08:00,77.8,75.6,29.86,ENE,72,2.0,2.0,93,0.00,,,0.01,WeatherCatV1.21B27,2013-09-23 12:08:00,
2013-09-23 08:13:00,77.8,75.6,29.86,SSW,204,2.0,4.0,93,0.00,,,0.01,WeatherCatV1.21B27,2013-09-23 12:13:00,
2013-09-23 08:18:00,77.9,75.7,29.86,East,84,1.0,1.0,93,0.00,,,0.01,WeatherCatV1.21B27,2013-09-23 12:18:00,
2013-09-23 08:23:00,77.8,75.3,29.87,South,174,0.0,3.0,92,0.00,,,0.01,WeatherCatV1.21B27,2013-09-23 12:23:00,
2013-09-23 08:28:00,77.8,75.3,29.87,SE,131,0.0,5.0,92,0.00,,,0.01,WeatherCatV1.21B27,2013-09-23 12:28:00,
2013-09-23 08:33:00,77.6,74.8,29.87,ESE,116,0.0,1.0,91,0.00,,,0.02,WeatherCatV1.21B27,2013-09-23 12:33:00,
2013-09-23 08:38:00,77.6,74.8,29.87,ENE,62,0.0,2.0,91,0.00,,,0.02,WeatherCatV1.21B27,2013-09-23 12:38:00,
2013-09-23 08:43:00,77.5,74.7,29.87,ESE,107,0.0,1.0,91,0.00,,,0.02,WeatherCatV1.21B27,2013-09-23 12:43:00,
2013-09-23 08:48:00,77.4,74.6,29.87,East,90,2.0,2.0,91,0.00,,,0.02,WeatherCatV1.21B27,2013-09-23 12:48:00,
2013-09-23 08:53:00,77.6,75.1,29.88,East,90,1.0,1.0,92,0.00,,,0.02,WeatherCatV1.21B27,2013-09-23 12:53:00,
2013-09-23 08:58:00,78.0,75.2,29.88,ESE,113,2.0,4.0,91,0.00,,,0.02,WeatherCatV1.21B27,2013-09-23 12:58:00,
2013-09-23 09:03:00,78.3,75.4,29.88,East,79,0.0,5.0,91,0.00,,,0.02,WeatherCatV1.21B27,2013-09-23 13:03:00,
2013-09-23 09:08:00,78.7,76.2,29.89,ESE,105,0.0,1.0,92,0.00,,,0.02,WeatherCatV1.21B27,2013-09-23 13:08:00,
2013-09-23 09:13:00,78.9,76.0,29.89,ENE,68,1.0,5.0,91,0.00,,,0.02,WeatherCatV1.21B27,2013-09-23 13:13:00,
2013-09-23 09:18:00,79.1,75.9,29.89,ESE,106,2.0,5.0,90,0.00,,,0.02,WeatherCatV1.21B27,2013-09-23 13:18:00,
2013-09-23 09:23:00,79.2,76.0,29.89,SE,140,1.0,5.0,90,0.00,,,0.02,WeatherCatV1.21B27,2013-09-23 13:23:00,
2013-09-23 09:29:00,79.4,75.9,29.89,ENE,77,5.0,6.0,89,0.00,,,0.02,WeatherCatV1.21B27,2013-09-23 13:29:00,
2013-09-23 09:34:00,79.6,76.4,29.89,SSE,165,0.0,2.0,90,0.00,,,0.02,WeatherCatV1.21B27,2013-09-23 13:34:00,
2013-09-23 09:39:00,79.8,76.6,29.89,ESE,106,0.0,5.0,90,0.00,,,0.02,WeatherCatV1.21B27,2013-09-23 13:39:00,
2013-09-23 09:44:00,80.0,76.8,29.89,ESE,121,0.0,4.0,90,0.00,,,0.02,WeatherCatV1.21B27,2013-09-23 13:44:00,
2013-09-23 09:49:00,80.0,76.4,29.89,East,90,1.0,5.0,89,0.00,,,0.02,WeatherCatV1.21B27,2013-09-23 13:49:00,
2013-09-23 09:54:00,80.2,76.7,29.89,East,89,0.0,6.0,89,0.00,,,0.02,WeatherCatV1.21B27,2013-09-23 13:54:00,
2013-09-23 09:59:00,80.3,76.8,29.89,ESE,111,0.0,5.0,89,0.00,,,0.02,WeatherCatV1.21B27,2013-09-23 13:59:00,
2013-09-23 10:04:00,80.3,76.8,29.89,ENE,71,1.0,3.0,89,0.00,,,0.02,WeatherCatV1.21B27,2013-09-23 14:04:00,
2013-09-23 10:09:00,80.4,76.8,29.90,SSE,165,0.0,2.0,89,0.00,,,0.02,WeatherCatV1.21B27,2013-09-23 14:09:00,
2013-09-23 10:14:00,80.6,77.0,29.89,ESE,107,0.0,3.0,89,0.00,,,0.02,WeatherCatV1.21B27,2013-09-23 14:14:00,
2013-09-23 10:19:00,80.7,76.8,29.89,ESE,109,0.0,5.0,88,0.00,,,0.02,WeatherCatV1.21B27,2013-09-23 14:19:00,
2013-09-23 10:24:00,81.0,76.8,29.89,East,99,3.0,9.0,87,0.00,,,0.02,WeatherCatV1.21B27,2013-09-23 14:24:00,
2013-09-23 10:29:00,81.2,76.6,29.88,ESE,111,1.0,6.0,86,0.00,,,0.02,WeatherCatV1.21B27,2013-09-23 14:29:00,
2013-09-23 10:34:00,81.7,77.4,29.88,ESE,114,5.0,6.0,87,0.00,,,0.02,WeatherCatV1.21B27,2013-09-23 14:34:00,
2013-09-23 10:39:00,82.0,77.0,29.89,East,95,1.0,6.0,85,0.00,,,0.02,WeatherCatV1.21B27,2013-09-23 14:39:00,
2013-09-23 10:44:00,81.8,76.1,29.89,ESE,117,2.0,7.0,83,0.00,,,0.02,WeatherCatV1.21B27,2013-09-23 14:44:00,
2013-09-23 10:49:00,81.5,75.8,29.89,SSE,150,3.0,5.0,83,0.00,,,0.02,WeatherCatV1.21B27,2013-09-23 14:49:00,
2013-09-23 10:54:00,81.2,76.2,29.90,South,175,0.0,1.0,85,0.74,,,0.04,WeatherCatV1.21B27,2013-09-23 14:54:00,
2013-09-23 10:59:00,80.5,76.3,29.91,SW,214,0.0,5.0,87,4.30,,,0.31,WeatherCatV1.21B27,2013-09-23 14:59:00,
2013-09-23 11:04:00,79.8,76.3,29.91,SW,214,0.0,0.0,89,3.81,,,0.60,WeatherCatV1.21B27,2013-09-23 15:04:00,
2013-09-23 11:09:00,79.3,76.1,29.92,West,263,6.0,6.0,90,1.20,,,0.77,WeatherCatV1.21B27,2013-09-23 15:09:00,
2013-09-23 11:14:00,78.5,75.0,29.93,NNW,336,2.0,10.0,89,5.94,,,0.94,WeatherCatV1.21B27,2013-09-23 15:14:00,
2013-09-23 11:19:00,78.0,75.2,29.93,West,272,1.0,7.0,91,2.58,,,1.28,WeatherCatV1.21B27,2013-09-23 15:19:00,
2013-09-23 11:24:00,77.6,74.8,29.93,South,189,0.0,2.0,91,0.32,,,1.35,WeatherCatV1.21B27,2013-09-23 15:24:00,
2013-09-23 11:29:00,77.4,74.9,29.93,South,169,0.0,3.0,92,0.12,,,1.36,WeatherCatV1.21B27,2013-09-23 15:29:00,
2013-09-23 11:34:00,77.0,74.5,29.94,South,183,0.0,1.0,92,2.57,,,1.45,WeatherCatV1.21B27,2013-09-23 15:34:00,
2013-09-23 11:39:00,77.0,74.8,29.93,South,174,0.0,2.0,93,2.42,,,1.64,WeatherCatV1.21B27,2013-09-23 15:39:00,
2013-09-23 11:44:00,76.8,74.6,29.93,South,174,0.0,1.0,93,0.44,,,1.71,WeatherCatV1.21B27,2013-09-23 15:44:00,
2013-09-23 11:49:00,76.7,74.5,29.93,SE,125,0.0,0.0,93,0.14,,,1.72,WeatherCatV1.21B27,2013-09-23 15:49:00,
2013-09-23 11:54:00,76.8,74.6,29.93,ESE,111,0.0,0.0,93,0.10,,,1.72,WeatherCatV1.21B27,2013-09-23 15:54:00,
2013-09-23 11:59:00,76.8,74.9,29.93,ESE,111,0.0,0.0,94,0.07,,,1.73,WeatherCatV1.21B27,2013-09-23 15:59:00,
2013-09-23 12:04:00,76.9,75.0,29.93,NNW,336,0.0,4.0,94,0.07,,,1.73,WeatherCatV1.21B27,2013-09-23 16:04:00,
2013-09-23 12:09:00,77.0,75.1,29.92,North,355,0.0,0.0,94,0.23,,,1.75,WeatherCatV1.21B27,2013-09-23 16:09:00,
2013-09-23 12:14:00,77.0,75.1,29.93,South,175,0.0,2.0,94,0.31,,,1.78,WeatherCatV1.21B27,2013-09-23 16:14:00,
2013-09-23 12:19:00,77.0,75.1,29.93,SE,137,0.0,2.0,94,0.23,,,1.81,WeatherCatV1.21B27,2013-09-23 16:19:00,
2013-09-23 12:24:00,77.1,75.2,29.93,SE,140,0.0,0.0,94,0.82,,,1.84,WeatherCatV1.21B27,2013-09-23 16:24:00,
2013-09-23 12:29:00,77.1,75.2,29.92,East,87,1.0,2.0,94,0.12,,,1.84,WeatherCatV1.21B27,2013-09-23 16:29:00,
2013-09-23 12:34:00,77.1,75.2,29.92,East,88,0.0,3.0,94,0.06,,,1.84,WeatherCatV1.21B27,2013-09-23 16:34:00,
2013-09-23 12:39:00,77.2,75.3,29.92,East,80,2.0,2.0,94,0.04,,,1.84,WeatherCatV1.21B27,2013-09-23 16:39:00,
2013-09-23 12:44:00,77.5,75.6,29.92,East,86,0.0,2.0,94,0.00,,,1.84,WeatherCatV1.21B27,2013-09-23 16:44:00,
2013-09-23 12:49:00,77.5,75.6,29.92,East,86,0.0,1.0,94,0.00,,,1.84,WeatherCatV1.21B27,2013-09-23 16:49:00,
2013-09-23 12:54:00,77.6,75.7,29.91,East,84,1.0,2.0,94,0.00,,,1.84,WeatherCatV1.21B27,2013-09-23 16:54:00,
2013-09-23 12:59:00,77.6,75.7,29.92,East,84,1.0,2.0,94,0.00,,,1.84,WeatherCatV1.21B27,2013-09-23 16:59:00,
2013-09-23 13:04:00,77.6,75.7,29.92,ESE,111,0.0,2.0,94,0.00,,,1.84,WeatherCatV1.21B27,2013-09-23 17:04:00,
2013-09-23 13:09:00,77.8,75.9,29.92,SE,128,0.0,1.0,94,0.00,,,1.84,WeatherCatV1.21B27,2013-09-23 17:09:00,
2013-09-23 13:14:00,78.2,76.3,29.92,SSE,148,0.0,1.0,94,0.00,,,1.84,WeatherCatV1.21B27,2013-09-23 17:14:00,
2013-09-23 13:19:00,78.8,76.9,29.91,ESE,107,0.0,2.0,94,0.00,,,1.84,WeatherCatV1.21B27,2013-09-23 17:19:00,
2013-09-23 13:24:00,79.5,77.6,29.91,SSE,167,2.0,2.0,94,0.00,,,1.84,WeatherCatV1.21B27,2013-09-23 17:24:00,
2013-09-23 13:29:00,79.8,77.9,29.91,South,188,3.0,4.0,94,0.00,,,1.84,WeatherCatV1.21B27,2013-09-23 17:29:00,
2013-09-23 13:34:00,80.1,77.9,29.91,SSE,163,0.0,2.0,93,0.00,,,1.84,WeatherCatV1.21B27,2013-09-23 17:34:00,
2013-09-23 13:39:00,80.4,77.8,29.90,ESE,112,4.0,5.0,92,0.00,,,1.84,WeatherCatV1.21B27,2013-09-23 17:39:00,
2013-09-23 13:44:00,80.7,78.2,29.89,East,96,5.0,6.0,92,0.00,,,1.84,WeatherCatV1.21B27,2013-09-23 17:44:00,
2013-09-23 13:49:00,80.6,77.0,29.89,East,90,1.0,6.0,89,0.00,,,1.84,WeatherCatV1.21B27,2013-09-23 17:49:00,
2013-09-23 13:54:00,80.6,77.4,29.89,SE,125,0.0,4.0,90,0.00,,,1.84,WeatherCatV1.21B27,2013-09-23 17:54:00,
2013-09-23 13:59:00,80.8,77.9,29.89,SSE,167,0.0,4.0,91,0.00,,,1.84,WeatherCatV1.21B27,2013-09-23 17:59:00,
2013-09-23 14:04:00,80.7,77.1,29.89,South,175,0.0,4.0,89,0.00,,,1.84,WeatherCatV1.21B27,2013-09-23 18:04:00,
2013-09-23 14:09:00,80.8,77.2,29.89,SE,138,1.0,4.0,89,0.00,,,1.84,WeatherCatV1.21B27,2013-09-23 18:09:00,
2013-09-23 14:14:00,80.8,76.9,29.89,South,173,0.0,2.0,88,0.00,,,1.84,WeatherCatV1.21B27,2013-09-23 18:14:00,
2013-09-23 14:19:00,80.6,76.7,29.89,SSE,158,0.0,3.0,88,0.00,,,1.84,WeatherCatV1.21B27,2013-09-23 18:19:00,
2013-09-23 14:24:00,80.5,76.6,29.90,South,178,0.0,4.0,88,0.00,,,1.84,WeatherCatV1.21B27,2013-09-23 18:24:00,
2013-09-23 14:29:00,80.2,76.7,29.90,SSW,205,0.0,2.0,89,0.00,,,1.84,WeatherCatV1.21B27,2013-09-23 18:29:00,
2013-09-23 14:34:00,80.0,76.4,29.90,SSW,202,0.0,1.0,89,0.28,,,1.86,WeatherCatV1.21B27,2013-09-23 18:34:00,
2013-09-23 14:39:00,79.6,76.4,29.90,SSW,193,1.0,2.0,90,0.28,,,1.89,WeatherCatV1.21B27,2013-09-23 18:39:00,
2013-09-23 14:44:00,79.0,75.8,29.90,SSE,159,0.0,5.0,90,0.69,,,1.96,WeatherCatV1.21B27,2013-09-23 18:44:00,
2013-09-23 14:49:00,78.7,75.8,29.90,SSE,159,0.0,1.0,91,0.17,,,1.97,WeatherCatV1.21B27,2013-09-23 18:49:00,
2013-09-23 14:54:00,78.4,75.5,29.89,South,186,0.0,4.0,91,0.11,,,1.98,WeatherCatV1.21B27,2013-09-23 18:54:00,
2013-09-23 14:59:00,78.1,75.6,29.89,South,182,0.0,1.0,92,0.09,,,1.98,WeatherCatV1.21B27,2013-09-23 18:59:00,
2013-09-23 15:04:00,78.0,75.5,29.89,South,182,0.0,2.0,92,0.13,,,1.99,WeatherCatV1.21B27,2013-09-23 19:04:00,
2013-09-23 15:09:00,77.8,75.3,29.89,South,182,0.0,2.0,92,0.12,,,2.00,WeatherCatV1.21B27,2013-09-23 19:09:00,
2013-09-23 15:14:00,77.6,75.1,29.89,SE,128,0.0,1.0,92,0.06,,,2.00,WeatherCatV1.21B27,2013-09-23 19:14:00,
2013-09-23 15:19:00,77.5,75.0,29.89,SSW,207,0.0,3.0,92,0.04,,,2.00,WeatherCatV1.21B27,2013-09-23 19:19:00,
2013-09-23 15:24:00,77.6,75.4,29.89,South,187,0.0,1.0,93,0.00,,,2.00,WeatherCatV1.21B27,2013-09-23 19:24:00,
2013-09-23 15:29:00,77.9,75.7,29.88,South,179,1.0,4.0,93,0.00,,,2.01,WeatherCatV1.21B27,2013-09-23 19:29:00,
2013-09-23 15:34:00,78.2,76.3,29.88,SSE,148,0.0,2.0,94,0.00,,,2.01,WeatherCatV1.21B27,2013-09-23 19:34:00,
2013-09-23 15:39:00,78.2,76.0,29.88,South,180,0.0,5.0,93,0.00,,,2.01,WeatherCatV1.21B27,2013-09-23 19:39:00,
2013-09-23 15:44:00,78.2,76.0,29.88,South,175,0.0,1.0,93,0.00,,,2.01,WeatherCatV1.21B27,2013-09-23 19:44:00,
2013-09-23 15:49:00,78.0,75.8,29.89,South,172,1.0,5.0,93,0.00,,,2.01,WeatherCatV1.21B27,2013-09-23 19:49:00,
2013-09-23 15:54:00,78.0,75.8,29.89,South,178,0.0,2.0,93,0.00,,,2.02,WeatherCatV1.21B27,2013-09-23 19:54:00,
2013-09-23 15:59:00,77.9,75.7,29.89,SSE,162,0.0,1.0,93,0.08,,,2.03,WeatherCatV1.21B27,2013-09-23 19:59:00,
2013-09-23 16:04:00,77.8,75.6,29.88,East,97,2.0,2.0,93,0.08,,,2.03,WeatherCatV1.21B27,2013-09-23 20:04:00,
2013-09-23 16:09:00,77.9,75.7,29.88,ESE,111,0.0,1.0,93,0.07,,,2.04,WeatherCatV1.21B27,2013-09-23 20:09:00,
2013-09-23 16:14:00,77.9,75.7,29.88,ESE,123,1.0,1.0,93,0.07,,,2.04,WeatherCatV1.21B27,2013-09-23 20:14:00,
2013-09-23 16:19:00,77.9,75.7,29.88,SE,136,0.0,0.0,93,0.05,,,2.04,WeatherCatV1.21B27,2013-09-23 20:19:00,
2013-09-23 16:24:00,78.0,75.8,29.88,East,86,0.0,0.0,93,0.00,,,2.04,WeatherCatV1.21B27,2013-09-23 20:24:00,
2013-09-23 16:29:00,78.2,76.3,29.88,East,85,0.0,0.0,94,0.00,,,2.04,WeatherCatV1.21B27,2013-09-23 20:29:00,
2013-09-23 16:34:00,78.2,76.0,29.88,ESE,114,0.0,2.0,93,0.00,,,2.04,WeatherCatV1.21B27,2013-09-23 20:34:00,
2013-09-23 16:39:00,78.3,76.1,29.89,SE,139,0.0,2.0,93,0.00,,,2.04,WeatherCatV1.21B27,2013-09-23 20:39:00,
2013-09-23 16:44:00,78.3,76.1,29.89,ESE,104,0.0,3.0,93,0.00,,,2.04,WeatherCatV1.21B27,2013-09-23 20:44:00,
2013-09-23 16:49:00,78.2,76.0,29.89,SE,132,0.0,0.0,93,0.00,,,2.04,WeatherCatV1.21B27,2013-09-23 20:49:00,
2013-09-23 16:54:00,78.2,76.0,29.89,East,88,1.0,1.0,93,0.00,,,2.04,WeatherCatV1.21B27,2013-09-23 20:54:00,
2013-09-23 16:59:00,78.3,76.1,29.89,East,87,1.0,2.0,93,0.00,,,2.04,WeatherCatV1.21B27,2013-09-23 20:59:00,
2013-09-23 17:04:00,78.2,76.0,29.89,ESE,117,0.0,1.0,93,0.00,,,2.04,WeatherCatV1.21B27,2013-09-23 21:04:00,
2013-09-23 17:09:00,78.2,76.0,29.89,ESE,121,0.0,1.0,93,0.00,,,2.04,WeatherCatV1.21B27,2013-09-23 21:09:00,
2013-09-23 17:14:00,78.2,76.0,29.90,ESE,122,0.0,1.0,93,0.00,,,2.04,WeatherCatV1.21B27,2013-09-23 21:14:00,
2013-09-23 17:19:00,78.2,76.0,29.89,ESE,107,3.0,5.0,93,0.00,,,2.04,WeatherCatV1.21B27,2013-09-23 21:19:00,
2013-09-23 17:24:00,78.0,75.8,29.89,ENE,68,2.0,5.0,93,0.00,,,2.04,WeatherCatV1.21B27,2013-09-23 21:24:00,
2013-09-23 17:29:00,78.0,75.8,29.89,ESE,123,1.0,2.0,93,0.00,,,2.04,WeatherCatV1.21B27,2013-09-23 21:29:00,
2013-09-23 17:34:00,78.0,75.8,29.90,East,81,0.0,2.0,93,0.00,,,2.04,WeatherCatV1.21B27,2013-09-23 21:34:00,
2013-09-23 17:39:00,77.9,75.7,29.90,East,86,0.0,0.0,93,0.00,,,2.04,WeatherCatV1.21B27,2013-09-23 21:39:00,
2013-09-23 17:44:00,77.9,75.7,29.91,SSE,147,1.0,2.0,93,0.00,,,2.05,WeatherCatV1.21B27,2013-09-23 21:44:00,
2013-09-23 17:49:00,77.9,75.7,29.91,SE,130,0.0,0.0,93,0.09,,,2.06,WeatherCatV1.21B27,2013-09-23 21:49:00,
2013-09-23 17:54:00,77.9,75.7,29.91,SE,130,0.0,0.0,93,0.39,,,2.08,WeatherCatV1.21B27,2013-09-23 21:54:00,
2013-09-23 17:59:00,77.9,75.7,29.91,East,95,0.0,1.0,93,0.36,,,2.12,WeatherCatV1.21B27,2013-09-23 21:59:00,
2013-09-23 18:04:00,77.9,75.7,29.91,East,94,0.0,1.0,93,0.22,,,2.15,WeatherCatV1.21B27,2013-09-23 22:04:00,
2013-09-23 18:09:00,77.8,75.6,29.91,East,96,1.0,2.0,93,0.64,,,2.18,WeatherCatV1.21B27,2013-09-23 22:09:00,
2013-09-23 18:14:00,77.7,75.5,29.91,ENE,71,0.0,4.0,93,0.48,,,2.22,WeatherCatV1.21B27,2013-09-23 22:14:00,
2013-09-23 18:19:00,77.6,75.4,29.92,ESE,102,0.0,1.0,93,0.97,,,2.26,WeatherCatV1.21B27,2013-09-23 22:19:00,
2013-09-23 18:24:00,77.5,75.6,29.92,ESE,103,2.0,3.0,94,0.51,,,2.33,WeatherCatV1.21B27,2013-09-23 22:24:00,
2013-09-23 18:29:00,77.4,75.5,29.92,ESE,111,0.0,2.0,94,0.22,,,2.36,WeatherCatV1.21B27,2013-09-23 22:29:00,
2013-09-23 18:34:00,77.3,75.4,29.92,East,101,2.0,4.0,94,0.11,,,2.36,WeatherCatV1.21B27,2013-09-23 22:34:00,
2013-09-23 18:39:00,77.2,75.3,29.92,South,180,2.0,2.0,94,0.20,,,2.38,WeatherCatV1.21B27,2013-09-23 22:39:00,
2013-09-23 18:44:00,76.9,74.7,29.92,ESE,115,4.0,8.0,93,0.62,,,2.49,WeatherCatV1.21B27,2013-09-23 22:44:00,
2013-09-23 18:49:00,76.6,74.4,29.91,ENE,69,5.0,5.0,93,0.29,,,2.52,WeatherCatV1.21B27,2013-09-23 22:49:00,
2013-09-23 18:54:00,76.5,74.3,29.91,ESE,106,2.0,5.0,93,0.19,,,2.53,WeatherCatV1.21B27,2013-09-23 22:54:00,
2013-09-23 18:59:00,76.3,74.4,29.91,ESE,115,1.0,6.0,94,0.15,,,2.54,WeatherCatV1.21B27,2013-09-23 22:59:00,
2013-09-23 19:04:00,76.2,74.3,29.91,ESE,110,1.0,1.0,94,0.13,,,2.55,WeatherCatV1.21B27,2013-09-23 23:04:00,
2013-09-23 19:09:00,76.2,74.3,29.91,ESE,107,0.0,2.0,94,0.13,,,2.56,WeatherCatV1.21B27,2013-09-23 23:09:00,
2013-09-23 19:14:00,76.3,74.4,29.91,SE,135,1.0,2.0,94,0.06,,,2.56,WeatherCatV1.21B27,2013-09-23 23:14:00,
2013-09-23 19:19:00,76.4,74.5,29.91,SE,138,0.0,2.0,94,0.04,,,2.57,WeatherCatV1.21B27,2013-09-23 23:19:00,
2013-09-23 19:24:00,76.4,74.5,29.91,SE,138,0.0,0.0,94,0.04,,,2.57,WeatherCatV1.21B27,2013-09-23 23:24:00,
2013-09-23 19:29:00,76.5,74.6,29.91,SE,139,0.0,1.0,94,0.04,,,2.57,WeatherCatV1.21B27,2013-09-23 23:29:00,
2013-09-23 19:34:00,76.5,74.6,29.91,SE,126,0.0,1.0,94,0.04,,,2.58,WeatherCatV1.21B27,2013-09-23 23:34:00,
2013-09-23 19:39:00,76.5,74.6,29.91,SSE,154,1.0,1.0,94,0.04,,,2.58,WeatherCatV1.21B27,2013-09-23 23:39:00,
2013-09-23 19:44:00,76.5,74.6,29.91,SE,142,0.0,1.0,94,0.07,,,2.59,WeatherCatV1.21B27,2013-09-23 23:44:00,
2013-09-23 19:49:00,76.4,74.5,29.91,SSE,157,0.0,1.0,94,0.13,,,2.60,WeatherCatV1.21B27,2013-09-23 23:49:00,
2013-09-23 19:54:00,76.3,74.4,29.91,ESE,115,0.0,0.0,94,0.07,,,2.60,WeatherCatV1.21B27,2013-09-23 23:54:00,
2013-09-23 19:59:00,76.2,74.3,29.91,ESE,112,0.0,1.0,94,0.04,,,2.60,WeatherCatV1.21B27,2013-09-23 23:59:00,
2013-09-23 20:04:00,76.2,74.3,29.91,ESE,119,0.0,1.0,94,0.04,,,2.61,WeatherCatV1.21B27,2013-09-24 00:04:00,
2013-09-23 20:09:00,76.2,74.3,29.91,ENE,69,3.0,3.0,94,0.04,,,2.61,WeatherCatV1.21B27,2013-09-24 00:09:00,
2013-09-23 20:14:00,76.1,74.2,29.91,ESE,109,0.0,4.0,94,0.04,,,2.61,WeatherCatV1.21B27,2013-09-24 00:14:00,
2013-09-23 20:19:00,76.1,74.2,29.91,ESE,122,1.0,2.0,94,0.00,,,2.61,WeatherCatV1.21B27,2013-09-24 00:19:00,
2013-09-23 20:24:00,76.1,74.2,29.91,ESE,119,0.0,1.0,94,0.00,,,2.61,WeatherCatV1.21B27,2013-09-24 00:24:00,
2013-09-23 20:29:00,76.1,74.2,29.91,ESE,116,0.0,3.0,94,0.00,,,2.62,WeatherCatV1.21B27,2013-09-24 00:29:00,
2013-09-23 20:34:00,76.1,74.2,29.91,SSE,148,0.0,3.0,94,0.00,,,2.62,WeatherCatV1.21B27,2013-09-24 00:34:00,
2013-09-23 20:39:00,76.0,74.1,29.91,ESE,105,2.0,2.0,94,0.00,,,2.62,WeatherCatV1.21B27,2013-09-24 00:39:00,
2013-09-23 20:44:00,76.0,74.1,29.91,East,92,1.0,2.0,94,0.00,,,2.62,WeatherCatV1.21B27,2013-09-24 00:44:00,
2013-09-23 20:49:00,76.0,74.1,29.92,SE,132,1.0,2.0,94,0.00,,,2.62,WeatherCatV1.21B27,2013-09-24 00:49:00,
2013-09-23 20:54:00,76.0,74.1,29.92,South,172,0.0,2.0,94,0.00,,,2.62,WeatherCatV1.21B27,2013-09-24 00:54:00,
2013-09-23 20:59:00,76.0,74.1,29.92,SSE,159,0.0,1.0,94,0.00,,,2.62,WeatherCatV1.21B27,2013-09-24 00:59:00,
2013-09-23 21:04:00,76.0,74.1,29.93,South,176,2.0,5.0,94,0.00,,,2.62,WeatherCatV1.21B27,2013-09-24 01:04:00,
2013-09-23 21:09:00,76.0,74.1,29.93,SSE,165,0.0,1.0,94,0.00,,,2.62,WeatherCatV1.21B27,2013-09-24 01:09:00,
2013-09-23 21:14:00,76.0,74.1,29.93,South,170,0.0,1.0,94,0.00,,,2.62,WeatherCatV1.21B27,2013-09-24 01:14:00,
2013-09-23 21:19:00,76.0,74.1,29.93,SSE,158,0.0,5.0,94,0.00,,,2.62,WeatherCatV1.21B27,2013-09-24 01:19:00,
2013-09-23 21:24:00,76.0,74.1,29.93,SE,140,0.0,1.0,94,0.00,,,2.62,WeatherCatV1.21B27,2013-09-24 01:24:00,
2013-09-23 21:29:00,76.1,74.2,29.93,SSE,163,0.0,1.0,94,0.00,,,2.62,WeatherCatV1.21B27,2013-09-24 01:29:00,
2013-09-23 21:34:00,76.1,74.2,29.94,South,180,0.0,1.0,94,0.00,,,2.62,WeatherCatV1.21B27,2013-09-24 01:34:00,
2013-09-23 21:39:00,76.1,74.2,29.94,South,180,1.0,1.0,94,0.00,,,2.62,WeatherCatV1.21B27,2013-09-24 01:39:00,
2013-09-23 21:44:00,76.0,74.1,29.95,South,180,0.0,1.0,94,0.44,,,2.64,WeatherCatV1.21B27,2013-09-24 01:44:00,
2013-09-23 21:50:00,76.0,74.1,29.95,SSE,165,0.0,0.0,94,0.23,,,2.66,WeatherCatV1.21B27,2013-09-24 01:50:00,
2013-09-23 21:55:00,76.0,74.1,29.95,SSE,149,0.0,0.0,94,0.09,,,2.67,WeatherCatV1.21B27,2013-09-24 01:55:00,
2013-09-23 22:00:00,76.0,74.1,29.95,SE,146,0.0,1.0,94,0.09,,,2.67,WeatherCatV1.21B27,2013-09-24 02:00:00,
2013-09-23 22:05:00,76.0,74.1,29.95,South,180,1.0,4.0,94,0.05,,,2.67,WeatherCatV1.21B27,2013-09-24 02:05:00,
2013-09-23 22:10:00,76.0,74.1,29.95,SSE,165,0.0,1.0,94,0.20,,,2.69,WeatherCatV1.21B27,2013-09-24 02:10:00,
2013-09-23 22:15:00,76.0,74.1,29.95,SSE,155,0.0,1.0,94,0.39,,,2.72,WeatherCatV1.21B27,2013-09-24 02:15:00,
2013-09-23 22:20:00,75.9,74.0,29.95,ESE,116,2.0,2.0,94,0.22,,,2.74,WeatherCatV1.21B27,2013-09-24 02:20:00,
2013-09-23 22:25:00,75.9,74.4,29.95,SSE,167,0.0,1.0,95,0.08,,,2.75,WeatherCatV1.21B27,2013-09-24 02:25:00,
2013-09-23 22:30:00,75.9,74.4,29.95,SSE,161,0.0,1.0,95,0.84,,,2.80,WeatherCatV1.21B27,2013-09-24 02:30:00,
2013-09-23 22:35:00,75.9,74.4,29.95,SE,132,0.0,1.0,95,0.86,,,2.86,WeatherCatV1.21B27,2013-09-24 02:35:00,
2013-09-23 22:40:00,75.9,74.4,29.95,SE,132,0.0,0.0,95,0.74,,,2.93,WeatherCatV1.21B27,2013-09-24 02:40:00,
2013-09-23 22:45:00,75.9,74.4,29.95,South,170,0.0,4.0,95,0.49,,,2.97,WeatherCatV1.21B27,2013-09-24 02:45:00,
2013-09-23 22:50:00,75.8,74.3,29.94,East,98,2.0,3.0,95,0.12,,,2.98,WeatherCatV1.21B27,2013-09-24 02:50:00,
2013-09-23 22:55:00,75.7,74.2,29.94,East,85,1.0,2.0,95,0.12,,,2.99,WeatherCatV1.21B27,2013-09-24 02:55:00,
2013-09-23 23:00:00,75.6,74.1,29.93,SE,126,0.0,5.0,95,0.06,,,2.99,WeatherCatV1.21B27,2013-09-24 03:00:00,
2013-09-23 23:05:00,75.5,73.6,29.93,ENE,72,0.0,4.0,94,0.04,,,2.99,WeatherCatV1.21B27,2013-09-24 03:05:00,
2013-09-23 23:10:00,75.5,73.6,29.92,SE,135,4.0,5.0,94,0.00,,,2.99,WeatherCatV1.21B27,2013-09-24 03:10:00,
2013-09-23 23:15:00,75.5,73.6,29.93,East,98,1.0,4.0,94,0.00,,,2.99,WeatherCatV1.21B27,2013-09-24 03:15:00,
2013-09-23 23:20:00,75.4,73.6,29.93,ESE,111,0.0,4.0,94,0.00,,,2.99,WeatherCatV1.21B27,2013-09-24 03:20:00,
2013-09-23 23:25:00,75.3,73.4,29.93,SE,126,1.0,1.0,94,0.00,,,2.99,WeatherCatV1.21B27,2013-09-24 03:25:00,
2013-09-23 23:30:00,75.3,73.8,29.93,ESE,111,5.0,5.0,95,0.00,,,2.99,WeatherCatV1.21B27,2013-09-24 03:30:00,
2013-09-23 23:35:00,75.2,73.7,29.93,SE,131,0.0,0.0,95,0.00,,,2.99,WeatherCatV1.21B27,2013-09-24 03:35:00,
2013-09-23 23:40:00,75.2,73.7,29.94,ESE,123,0.0,2.0,95,0.00,,,2.99,WeatherCatV1.21B27,2013-09-24 03:40:00,
2013-09-23 23:45:00,75.2,73.7,29.94,East,98,1.0,6.0,95,0.00,,,2.99,WeatherCatV1.21B27,2013-09-24 03:45:00,
2013-09-23 23:50:00,75.1,73.6,29.94,SE,126,0.0,2.0,95,0.00,,,2.99,WeatherCatV1.21B27,2013-09-24 03:50:00,
2013-09-23 23:55:00,75.1,73.6,29.94,SE,146,0.0,5.0,95,0.00,,,2.99,WeatherCatV1.21B27,2013-09-24 03:55:00,